This is the latest recevied weather packets stored in our database for station/object K7FRY. If no packets are shown the sender has not sent any weather packets the latest 10 day(s).
| Time | Temp. | Humidity | Pressure | Rain* | Wind** | Luminosity | Snow |
|---|---|---|---|---|---|---|---|
| 1778065309 | 10.56° C | 71% | 1016.4 hPa | 0 mm | - | 0 W/m² | - |
| 1778065005 | 10.56° C | 69% | 1016.4 hPa | 0 mm | - | 0 W/m² | - |
| 1778064702 | 11.11° C | 68% | 1016.5 hPa | 0 mm | - | 0 W/m² | - |
| 1778064401 | 11.11° C | 67% | 1016.3 hPa | 0 mm | - | 0 W/m² | - |
| 1778064098 | 11.11° C | 69% | 1016.1 hPa | 0 mm | - | 0 W/m² | - |
| 1778063795 | 11.11° C | 70% | 1016.1 hPa | 0 mm | - | 0 W/m² | - |
| 1778063492 | 11.11° C | 67% | 1016.1 hPa | 0 mm | - | 0 W/m² | - |
| 1778063190 | 10.56° C | 70% | 1016.2 hPa | 0 mm | - | 0 W/m² | - |
| 1778062887 | 11.11° C | 70% | 1016.1 hPa | 0 mm | - | 0 W/m² | - |
| 1778062584 | 11.67° C | 68% | 1016.2 hPa | 0 mm | - | 0 W/m² | - |
| 1778062280 | 12.22° C | 64% | 1016.2 hPa | 0 mm | - | 0 W/m² | - |
| 1778061979 | 12.22° C | 63% | 1016.2 hPa | 0 mm | - | 0 W/m² | - |
| 1778061676 | 12.22° C | 64% | 1015.9 hPa | 0 mm | - | 0 W/m² | - |
| 1778061375 | 11.67° C | 65% | 1016.3 hPa | 0 mm | - | 0 W/m² | - |
| 1778061071 | 11.67° C | 66% | 1016.1 hPa | 0 mm | - | 0 W/m² | - |
| 1778060769 | 11.11° C | 67% | 1016 hPa | 0 mm | - | 0 W/m² | - |
| 1778060467 | 12.22° C | 67% | 1016.1 hPa | 0 mm | - | 0 W/m² | - |
| 1778060165 | 12.78° C | 59% | 1016 hPa | 0 mm | - | 0 W/m² | - |
| 1778059862 | 12.22° C | 62% | 1015.9 hPa | 0 mm | - | 0 W/m² | - |
| 1778059560 | 12.22° C | 63% | 1015.8 hPa | 0 mm | - | 0 W/m² | - |
| 1778059256 | 12.22° C | 63% | 1015.6 hPa | 0 mm | - | 0 W/m² | - |
| 1778058954 | 12.22° C | 63% | 1015.8 hPa | 0 mm | - | 0 W/m² | - |
| 1778058652 | 12.22° C | 63% | 1015.5 hPa | 0 mm | - | 0 W/m² | - |
| 1778058349 | 12.78° C | 62% | 1015.8 hPa | 0 mm | - | 0 W/m² | - |
| 1778058045 | 13.89° C | 55% | 1015.8 hPa | 0 mm | - | 0 W/m² | - |
* Rain latest hour (hover to see other rain measurements)
** Current wind speed in m/s (hover to see current wind gust speed)